Weather History for Pine Ridge, SD

Change the Weather History Date:

Saturday, April 5, 2014

  Actual Average Record
Temperature  
Mean Temperature 45 °F 43 °F  
Max Temperature 64 °F 57 °F 82 °F (2006)
Min Temperature 26 °F 29 °F 14 °F (2009)
Degree Days  
Heating Degree Days 20 22  
Month to date heating degree days 164 114  
Since 1 July heating degree days 6579 6352  
Cooling Degree Days 0 0  
Month to date cooling degree days 0 0  
Year to date cooling degree days 0 0  
Moisture  
Dew Point 26 °F    
Average Humidity 49    
Maximum Humidity 78    
Minimum Humidity 19    
Precipitation  
Precipitation 0.00 in 0.04 in 0.02 in (1999)
Month to date precipitation 0.08 0.21  
Year to date precipitation 0.69 1.87  
Sea Level Pressure  
Sea Level Pressure 29.83 in    
Wind  
Wind Speed 9 mph (WSW)    
Max Wind Speed 23 mph    
Max Gust Speed 28 mph    
Visibility 10 miles    
Events      
T = Trace of Precipitation, MM = Missing Value Source: NWS Daily Summary

Daily Weather History Graph

Daily Weather History Graph

Search for Another Location

Airport:

Trip Planner

Search our weather history database for the weather conditions in past years. The results will help you decide how hot, cold, wet, or windy it might be!

Date:

Astronomy

Apr. 05, 2014 Rise Set
Actual Time 6:25 AM MDT 7:21 PM MDT
Civil Twilight 5:56 AM MDT 7:50 PM MDT
Nautical Twilight 5:21 AM MDT 8:24 PM MDT
Astronomical Twilight 4:46 AM MDT 9:00 PM MDT
Moon 10:29 AM MDT (4/5) 12:38 AM MDT (4/5)
Length of Visible Light 13h 53m
Length of Day
12h 56m
Waxing Crescent, 35% of the Moon is Illuminated
Apr 5
Waxing Crescent
Apr 7
First Quarter
Apr 15
Full
Apr 22
Last Quarter
Apr 29
New

Hourly Weather History & Observations

Time (MDT) Temp. Windchill Dew Point Humidity Pressure Visibility Wind Dir Wind Speed Gust Speed Precip Events Conditions
12:52 AM 44.1 °F 36.2 °F 27.0 °F 51% 29.84 in 10.0 mi South 18.4 mph 25.3 mph N/A   Scattered Clouds
1:52 AM 43.0 °F 34.5 °F 27.0 °F 53% 29.83 in 10.0 mi South 19.6 mph - N/A   Partly Cloudy
2:52 AM 41.0 °F 32.8 °F 28.0 °F 60% 29.82 in 10.0 mi South 16.1 mph - N/A   Clear
3:52 AM 39.0 °F 29.9 °F 27.0 °F 62% 29.81 in 10.0 mi South 17.3 mph - N/A   Clear
4:52 AM 37.0 °F 29.8 °F 26.1 °F 65% 29.81 in 10.0 mi SSW 10.4 mph - N/A   Clear
5:52 AM 37.0 °F 31.0 °F 26.1 °F 65% 29.82 in 10.0 mi SW 8.1 mph - N/A   Clear
6:52 AM 36.0 °F 29.0 °F 26.1 °F 67% 29.84 in 10.0 mi SSW 9.2 mph - N/A   Clear
7:52 AM 39.9 °F 35.8 °F 27.0 °F 60% 29.86 in 10.0 mi SSW 5.8 mph - N/A   Clear
8:52 AM 46.9 °F - 26.1 °F 44% 29.85 in 10.0 mi WSW 9.2 mph - N/A   Clear
9:52 AM 51.1 °F - 27.0 °F 39% 29.83 in 10.0 mi WSW 13.8 mph - N/A   Clear
10:52 AM 54.0 °F - 27.0 °F 35% 29.83 in 10.0 mi West 11.5 mph - N/A   Clear
11:52 AM 59.0 °F - 26.1 °F 28% 29.81 in 10.0 mi WNW 10.4 mph - N/A   Clear
12:52 PM 61.0 °F - 19.9 °F 21% 29.80 in 10.0 mi WNW 10.4 mph - N/A   Clear
1:52 PM 60.1 °F - 18.0 °F 20% 29.79 in 10.0 mi West 6.9 mph 19.6 mph N/A   Clear
2:52 PM 63.0 °F - 21.9 °F 21% 29.78 in 10.0 mi North 8.1 mph - N/A   Clear
3:52 PM 62.1 °F - 21.0 °F 21% 29.78 in 10.0 mi North - - N/A   Clear
4:52 PM 62.1 °F - 21.9 °F 21% 29.79 in 10.0 mi WNW 4.6 mph - N/A   Clear
5:52 PM 60.1 °F - 26.1 °F 27% 29.81 in 10.0 mi NNE 8.1 mph - N/A   Clear
6:52 PM 54.0 °F - 28.0 °F 37% 29.84 in 10.0 mi NE 5.8 mph - N/A   Clear
7:52 PM 46.0 °F 43.9 °F 27.0 °F 47% 29.86 in 10.0 mi North 4.6 mph - N/A   Clear
8:52 PM 42.1 °F 40.2 °F 27.0 °F 55% 29.89 in 10.0 mi East 3.5 mph - N/A   Clear
9:52 PM 37.0 °F - 28.0 °F 70% 29.91 in 10.0 mi Calm Calm - N/A   Clear
10:52 PM 33.1 °F 28.7 °F 27.0 °F 78% 29.91 in 10.0 mi ENE 4.6 mph - N/A   Scattered Clouds
11:52 PM 32.0 °F 25.6 °F 27.0 °F 82% 29.90 in 10.0 mi NE 6.9 mph - N/A   Clear